Location: Les Gen�tes
(46.3104°N, 1.5969°E)
Time: 12:14:39
(UTC+00:00)

Cosmos 2279 Rocket - Pass Details

Date: 01 June 2020
Orbit: 963 x 980 km, 82.9° (Epoch: 01 July)

Event Time Altitude Azimuth Distance (km) Brightness Sun altitude
Rises 20:34:14 0° 351° (N) 3,683 8.0 -8.2°
Reaches altitude 10° 20:36:46 10° 351° (N) 2,729 7.2 -8.6°
Maximum altitude 20:43:02 90° 89° (E) 977 4.0 -9.3°
Drops below altitude 10° 20:49:14 10° 173° (S) 2,700 5.8 -10.0°
Enters shadow 20:50:14 - 174° (S) 3,076 6.1 -10.1°
